Flag for France Weather past 2 weeks in Poitiers, France

Now
55 °F

Low clouds.


Feels Like: 53 °F
Forecast: 46 / 58 °F
Wind: 10 mph from Northwest

Location: Poitiers Airport

Current Time: Apr 27, 2015 at 1:24:11 AM

Latest Report: Apr 27, 2015 at 1:00 AM


Visibility: 6 mi

Pressure: 29.62 "Hg

Humidity: 94%

Dew point: 54 °F

Location of PoitiersLocation

Historic Weather in Poitiers — Graph

°F

Poitiers temperature yesterday

Maximum temperature yesterday: 66 °F (at 5:30 PM)
Minimum temperature yesterday: 48 °F (at 4:00 AM)
Average temperature yesterday: 56 °F

Past Weeks' High & Low Weather Summary

 TemperatureHumidityPressure
High82 °F (Apr 15, 5:00 PM)100% (Apr 12, 5:00 AM)30.45 "Hg (Apr 12, 5:00 AM)
Low37 °F (Apr 12, 6:00 AM)15% (Apr 15, 5:00 PM)29.56 "Hg (Apr 26, 7:00 PM)
Average59 °F64%30.07 "Hg
* Reported Midnight between Apr 11 and Apr 12 — Midnight between Apr 26 and Apr 27, Poitiers, Weather by CustomWeather, © 2015

Note: Actual official high and low records may vary slightly from our data, if they occured in-between our weather recording intervals... More about our weather records

Advertising

Poitiers weather history for previous 24 hours

 ConditionsComfort  
Time TempWeatherWind HumidityBarometerVisibility
12:00 AM
Mon, Apr 27
55 °FLow clouds.8 mph94%29.62 "HgN/A
11:30 PM
Sun, Apr 26
55 °FLow clouds.8 mph94%29.62 "HgN/A
11:00 PM57 °FLow clouds.8 mph88%29.62 "HgN/A
10:30 PM57 °FPassing clouds.8 mph88%29.62 "HgN/A
10:00 PM57 °FMostly cloudy.7 mph88%29.62 "HgN/A
9:30 PM57 °FLow clouds.6 mph88%29.62 "HgN/A
9:00 PM57 °FBroken clouds.8 mph88%29.59 "HgN/A
8:30 PM59 °FBroken clouds.8 mph88%29.59 "HgN/A
8:00 PM61 °FPassing clouds.6 mph77%29.59 "HgN/A
7:30 PM63 °FClear.7 mph73%29.59 "HgN/A
7:00 PM64 °FPartly sunny.13 mph68%29.56 "HgN/A
6:30 PM66 °FPartly sunny.12 mph64%29.59 "HgN/A
6:00 PM64 °FPartly sunny.12 mph78%29.59 "HgN/A
5:30 PM66 °FPartly sunny.14 mph68%29.59 "HgN/A
5:00 PM64 °FPartly sunny.12 mph78%29.59 "HgN/A
4:30 PM63 °FPartly sunny.12 mph77%29.59 "HgN/A
4:00 PM64 °FPartly sunny.12 mph78%29.62 "HgN/A
3:30 PM63 °FPartly sunny.10 mph77%29.62 "HgN/A
3:00 PM61 °FPartly sunny.12 mph88%29.65 "HgN/A
2:30 PM61 °FBroken clouds.13 mph94%29.65 "HgN/A
2:00 PM61 °FLight rain. Partly sunny.13 mph83%29.65 "HgN/A
1:30 PM59 °FRain. Partly sunny.10 mph94%29.68 "HgN/A
1:00 PM59 °FLight rain. Mostly cloudy.6 mph94%29.68 "HgN/A
12:30 PM57 °FLight rain. Broken clouds.7 mph94%29.68 "Hg6 mi
12:00 PM57 °FRain. Fog.6 mph88%29.68 "Hg3 mi
11:30 AM57 °FLight rain. Partly sunny.5 mph88%29.71 "HgN/A
11:00 AM55 °FLight rain. Partly sunny.3 mph94%29.71 "HgN/A
10:30 AM55 °FMostly cloudy.5 mph94%29.71 "HgN/A
10:00 AM54 °FLight rain. Low clouds.2 mph94%29.71 "Hg6 mi
9:30 AM52 °FLight rain. Fog.6 mph94%29.71 "Hg3 mi
9:00 AM52 °FHeavy rain. Fog.3 mph94%29.71 "Hg1 mi
8:30 AM52 °FRain. Mostly cloudy.5 mph94%29.71 "Hg4 mi
8:00 AM52 °FLight rain. Mostly cloudy.3 mph88%29.71 "HgN/A
7:30 AM52 °FPassing clouds.5 mph88%29.71 "HgN/A
7:00 AM52 °FClear.5 mph88%29.71 "HgN/A
6:30 AM52 °FClear.3 mph88%29.74 "HgN/A
6:00 AM52 °FClear.2 mph88%29.74 "HgN/A
5:30 AM50 °FClear.3 mph94%29.74 "HgN/A
5:00 AM48 °FClear.2 mph94%29.77 "HgN/A
4:30 AM48 °FClear.2 mph94%29.77 "HgN/A
4:00 AM48 °FClear.No wind87%29.80 "HgN/A
3:30 AM50 °FClear.2 mph88%29.80 "HgN/A
3:00 AM50 °FClear.3 mph88%29.80 "HgN/A
2:30 AM50 °FClear.2 mph94%29.80 "HgN/A
2:00 AM50 °FClear.No wind94%29.83 "HgN/A
1:30 AM52 °FClear.No wind88%29.83 "HgN/A
1:00 AM52 °FClear.2 mph88%29.83 "HgN/A
Weather by CustomWeather, © 2015

See weather overviewHow to use our weather pages